• In Deutschland
  • Länderverzeichnis
  • Für 7 Tage
  • Wassertemperatur
  • Satellitenkarten
  • Wetterkarte
  • Widgets
  • user-avatar
    Anmelden

    Stündliche Wetter Lesniki

    Heute, 23 Oktober, Dienstag

    Zeit Temperatur Niederschläge Wind Luftdruck Luftfeuchtigkeit
    00:00 +2°C° 0 mm 3 m/S 740 mmHg 84%
    01:00 +2°C° 0 mm 3 m/S 739 mmHg 87%
    02:00 +1°C° 0 mm 4 m/S 738 mmHg 86%
    03:00 +1°C° 0.2 mm 4 m/S 738 mmHg 88%
    04:00 +1°C° 0.2 mm 4 m/S 737 mmHg 90%
    05:00 +1°C° 0.2 mm 4 m/S 737 mmHg 92%
    06:00 +1°C° 0.1 mm 4 m/S 737 mmHg 92%
    07:00 +3°C° 0.1 mm 3 m/S 736 mmHg 92%
    08:00 +3°C° 0.1 mm 3 m/S 736 mmHg 92%
    09:00 +4°C° 0 mm 3 m/S 736 mmHg 90%
    10:00 +5°C° 0 mm 3 m/S 735 mmHg 87%
    11:00 +5°C° 0 mm 3 m/S 735 mmHg 84%
    12:00 +5°C° 0.1 mm 3 m/S 734 mmHg 81%
    13:00 +7°C° 0.1 mm 3 m/S 733 mmHg 78%
    14:00 +6°C° 0.1 mm 4 m/S 732 mmHg 74%
    15:00 +6°C° 0 mm 4 m/S 732 mmHg 76%
    16:00 +5°C° 0 mm 4 m/S 731 mmHg 77%
    17:00 +5°C° 0 mm 4 m/S 730 mmHg 78%
    18:00 +4°C° 0.2 mm 4 m/S 729 mmHg 79%
    19:00 +4°C° 0.2 mm 4 m/S 728 mmHg 79%
    20:00 +3°C° 0.2 mm 5 m/S 727 mmHg 80%
    21:00 +3°C° 0.4 mm 5 m/S 726 mmHg 81%
    22:00 +3°C° 0.4 mm 6 m/S 725 mmHg 82%
    23:00 +2°C° 0.4 mm 6 m/S 724 mmHg 83%

    Morgen, 24 Oktober, Mittwoch

    Zeit Temperatur Niederschläge Wind Luftdruck Luftfeuchtigkeit
    00:00 +2°C° 0.4 mm 6 m/S 722 mmHg 83%
    01:00 +2°C° 0.4 mm 6 m/S 721 mmHg 84%
    02:00 +2°C° 0.4 mm 6 m/S 720 mmHg 85%
    03:00 +3°C° 0.4 mm 6 m/S 719 mmHg 86%
    04:00 +3°C° 0.4 mm 6 m/S 718 mmHg 87%
    05:00 +3°C° 0.4 mm 6 m/S 717 mmHg 87%
    06:00 +3°C° 0.3 mm 5 m/S 716 mmHg 88%
    07:00 +3°C° 0.3 mm 5 m/S 716 mmHg 89%
    08:00 +4°C° 0.3 mm 4 m/S 715 mmHg 90%
    09:00 +5°C° 0.3 mm 4 m/S 715 mmHg 89%
    10:00 +5°C° 0.3 mm 4 m/S 715 mmHg 87%
    11:00 +5°C° 0.3 mm 4 m/S 715 mmHg 86%
    12:00 +5°C° 0.6 mm 4 m/S 715 mmHg 85%
    13:00 +5°C° 0.6 mm 4 m/S 715 mmHg 85%
    14:00 +5°C° 0.6 mm 5 m/S 715 mmHg 84%
    15:00 +3°C° 0.5 mm 5 m/S 716 mmHg 84%
    16:00 +3°C° 0.5 mm 5 m/S 716 mmHg 83%
    17:00 +4°C° 0.5 mm 4 m/S 716 mmHg 83%
    18:00 +3°C° 0.1 mm 4 m/S 717 mmHg 84%
    19:00 +3°C° 0.1 mm 4 m/S 717 mmHg 84%
    20:00 +3°C° 0.1 mm 4 m/S 717 mmHg 85%
    21:00 +3°C° 0 mm 4 m/S 718 mmHg 87%
    22:00 +3°C° 0 mm 4 m/S 718 mmHg 89%
    23:00 +1°C° 0 mm 4 m/S 718 mmHg 91%

    übermorgen, 25 Oktober, Donnerstag

    Zeit Temperatur Niederschläge Wind Luftdruck Luftfeuchtigkeit
    00:00 +3°C° 0.2 mm 4 m/S 718 mmHg 91%
    01:00 +3°C° 0.2 mm 4 m/S 719 mmHg 90%
    02:00 +3°C° 0.2 mm 4 m/S 719 mmHg 90%
    03:00 +2°C° 0.3 mm 5 m/S 719 mmHg 88%
    04:00 +2°C° 0.3 mm 5 m/S 719 mmHg 86%
    05:00 +2°C° 0.3 mm 6 m/S 720 mmHg 84%
    06:00 +2°C° 0.1 mm 6 m/S 720 mmHg 82%
    07:00 +2°C° 0.1 mm 6 m/S 720 mmHg 81%
    08:00 +2°C° 0.1 mm 7 m/S 721 mmHg 80%
    09:00 +2°C° 0.1 mm 7 m/S 721 mmHg 79%
    10:00 +2°C° 0.1 mm 7 m/S 722 mmHg 77%
    11:00 +2°C° 0.1 mm 7 m/S 722 mmHg 76%
    12:00 +2°C° 0 mm 7 m/S 723 mmHg 74%
    13:00 +2°C° 0 mm 6 m/S 723 mmHg 73%
    14:00 +2°C° 0 mm 6 m/S 723 mmHg 71%
    15:00 +2°C° 0 mm 5 m/S 724 mmHg 72%
    16:00 +2°C° 0 mm 5 m/S 724 mmHg 74%
    17:00 +1°C° 0 mm 4 m/S 724 mmHg 75%
    18:00 +2°C° 0 mm 3 m/S 725 mmHg 77%
    19:00 +2°C° 0 mm 3 m/S 725 mmHg 80%
    20:00 +2°C° 0 mm 2 m/S 725 mmHg 83%
    21:00 +2°C° 0 mm 2 m/S 725 mmHg 86%
    22:00 +1°C° 0 mm 2 m/S 725 mmHg 88%
    23:00 +1°C° 0 mm 2 m/S 726 mmHg 91%

    26 Oktober, Freitag

    Zeit Temperatur Niederschläge Wind Luftdruck Luftfeuchtigkeit
    00:00 -1°C° 0 mm 2 m/S 726 mmHg 92%
    01:00 -1°C° 0 mm 2 m/S 726 mmHg 92%
    02:00 -1°C° 0 mm 2 m/S 727 mmHg 93%
    03:00 -1°C° 0 mm 2 m/S 727 mmHg 94%
    04:00 -2°C° 0 mm 2 m/S 727 mmHg 94%
    05:00 -2°C° 0 mm 2 m/S 728 mmHg 94%
    06:00 -1°C° 0 mm 2 m/S 728 mmHg 93%
    07:00 -1°C° 0 mm 3 m/S 729 mmHg 91%
    08:00 0°C° 0 mm 3 m/S 729 mmHg 89%
    09:00 +1°C° 0 mm 3 m/S 729 mmHg 84%
    10:00 +1°C° 0 mm 4 m/S 729 mmHg 79%
    11:00 +3°C° 0 mm 4 m/S 730 mmHg 74%
    12:00 +3°C° 0.1 mm 5 m/S 730 mmHg 74%
    13:00 +3°C° 0.1 mm 5 m/S 730 mmHg 74%
    14:00 +3°C° 0.1 mm 5 m/S 730 mmHg 74%
    15:00 +3°C° 0.1 mm 4 m/S 731 mmHg 79%
    16:00 +1°C° 0.1 mm 4 m/S 731 mmHg 83%
    17:00 +1°C° 0.1 mm 3 m/S 731 mmHg 88%
    18:00 +1°C° 0 mm 3 m/S 732 mmHg 87%
    19:00 +1°C° 0 mm 3 m/S 732 mmHg 87%
    20:00 +1°C° 0 mm 3 m/S 733 mmHg 87%
    21:00 0°C° 0 mm 3 m/S 733 mmHg 88%
    22:00 0°C° 0 mm 3 m/S 734 mmHg 89%
    23:00 0°C° 0 mm 3 m/S 734 mmHg 90%

    27 Oktober, Samstag

    Zeit Temperatur Niederschläge Wind Luftdruck Luftfeuchtigkeit
    00:00 0°C° 0 mm 3 m/S 734 mmHg 91%
    01:00 -1°C° 0 mm 3 m/S 735 mmHg 92%
    02:00 -1°C° 0 mm 3 m/S 735 mmHg 94%
    03:00 -1°C° 0 mm 3 m/S 735 mmHg 94%
    04:00 -2°C° 0 mm 4 m/S 735 mmHg 94%
    05:00 -2°C° 0 mm 4 m/S 734 mmHg 94%
    06:00 -1°C° 0 mm 5 m/S 734 mmHg 92%
    07:00 -1°C° 0 mm 6 m/S 734 mmHg 89%
    08:00 +1°C° 0 mm 6 m/S 734 mmHg 87%
    09:00 +2°C° 0.1 mm 7 m/S 733 mmHg 84%
    10:00 +3°C° 0.1 mm 7 m/S 733 mmHg 81%
    11:00 +4°C° 0.1 mm 8 m/S 732 mmHg 78%
    12:00 +4°C° 0.2 mm 8 m/S 731 mmHg 79%
    13:00 +5°C° 0.2 mm 8 m/S 731 mmHg 80%
    14:00 +5°C° 0.2 mm 8 m/S 730 mmHg 80%
    15:00 +5°C° 0.5 mm 8 m/S 730 mmHg 83%
    16:00 +6°C° 0.5 mm 7 m/S 730 mmHg 85%
    17:00 +6°C° 0.5 mm 7 m/S 730 mmHg 87%
    18:00 +5°C° 0.3 mm 7 m/S 730 mmHg 86%
    19:00 +5°C° 0.3 mm 6 m/S 730 mmHg 85%
    20:00 +4°C° 0.3 mm 6 m/S 730 mmHg 85%
    21:00 +4°C° 0 mm 6 m/S 731 mmHg 84%
    22:00 +3°C° 0 mm 6 m/S 731 mmHg 83%
    23:00 +3°C° 0 mm 6 m/S 731 mmHg 83%

    28 Oktober, Sonntag

    Zeit Temperatur Niederschläge Wind Luftdruck Luftfeuchtigkeit
    00:00 +2°C° 0 mm 5 m/S 732 mmHg 83%
    01:00 +2°C° 0 mm 5 m/S 732 mmHg 84%
    02:00 +2°C° 0 mm 5 m/S 733 mmHg 84%
    03:00 +1°C° 0 mm 5 m/S 734 mmHg 86%
    04:00 +1°C° 0 mm 4 m/S 734 mmHg 87%
    05:00 +1°C° 0 mm 3 m/S 735 mmHg 88%
    06:00 +1°C° 0 mm 3 m/S 736 mmHg 88%
    07:00 0°C° 0 mm 3 m/S 737 mmHg 87%
    08:00 +1°C° 0 mm 2 m/S 737 mmHg 87%
    09:00 +2°C° 0 mm 2 m/S 738 mmHg 82%
    10:00 +3°C° 0 mm 2 m/S 739 mmHg 77%
    11:00 +3°C° 0 mm 2 m/S 739 mmHg 72%
    12:00 +4°C° 0 mm 1 m/S 740 mmHg 71%
    13:00 +5°C° 0 mm 1 m/S 740 mmHg 70%
    14:00 +5°C° 0 mm 1 m/S 740 mmHg 69%
    15:00 +4°C° 0 mm 1 m/S 741 mmHg 71%
    16:00 +4°C° 0 mm 1 m/S 741 mmHg 74%
    17:00 +4°C° 0 mm 1 m/S 742 mmHg 76%
    18:00 +4°C° 0 mm 1 m/S 742 mmHg 78%
    19:00 +3°C° 0 mm 1 m/S 742 mmHg 79%
    20:00 +3°C° 0 mm 1 m/S 742 mmHg 80%
    21:00 +2°C° 0.1 mm 2 m/S 742 mmHg 82%
    22:00 +2°C° 0.1 mm 2 m/S 743 mmHg 83%
    23:00 +1°C° 0.1 mm 3 m/S 743 mmHg 84%

    29 Oktober, Montag

    Zeit Temperatur Niederschläge Wind Luftdruck Luftfeuchtigkeit
    00:00 +1°C° 0.4 mm 3 m/S 743 mmHg 84%
    01:00 0°C° 0.4 mm 4 m/S 742 mmHg 84%
    02:00 0°C° 0.4 mm 5 m/S 742 mmHg 84%
    03:00 0°C° 1 mm 5 m/S 742 mmHg 85%
    04:00 0°C° 1 mm 5 m/S 742 mmHg 86%
    05:00 -1°C° 1 mm 6 m/S 741 mmHg 88%
    06:00 -1°C° 0.8 mm 6 m/S 741 mmHg 89%
    07:00 -1°C° 0.8 mm 6 m/S 741 mmHg 90%
    08:00 -1°C° 0.8 mm 6 m/S 741 mmHg 90%
    09:00 -1°C° 0.2 mm 6 m/S 740 mmHg 90%
    10:00 -1°C° 0.2 mm 6 m/S 740 mmHg 90%
    11:00 +1°C° 0.2 mm 6 m/S 740 mmHg 91%
    12:00 +1°C° 0 mm 5 m/S 739 mmHg 91%
    13:00 +2°C° 0 mm 5 m/S 739 mmHg 92%
    14:00 +2°C° 0 mm 5 m/S 738 mmHg 93%
    15:00 +3°C° 0.1 mm 5 m/S 738 mmHg 94%
    16:00 +3°C° 0.1 mm 5 m/S 738 mmHg 95%
    17:00 +5°C° 0.1 mm 4 m/S 737 mmHg 96%
    18:00 +6°C° 0.1 mm 4 m/S 737 mmHg 96%
    19:00 +6°C° 0.1 mm 5 m/S 737 mmHg 96%
    20:00 +7°C° 0.1 mm 5 m/S 737 mmHg 96%
    21:00 +7°C° 0 mm 5 m/S 737 mmHg 94%
    22:00 +8°C° 0 mm 5 m/S 737 mmHg 91%
    23:00 +8°C° 0 mm 5 m/S 737 mmHg 89%
    Mehr zeigen